Station MGIP4 - 9759110 - Magueyes Islands, PR Image indicating link to RSS feed of recent meteorological observations for station MGIP4


Conditions at MGIP4 as of
(10:54 pm AST on 06/03/2023)
0254 GMT on 06/04/2023:
     

Click on the graph icon in the table below to see a time series plot of the last five days of that observation.

5-day plot - Wind Direction Wind Direction (WDIR):ESE ( 120 deg true )
5-day plot - Wind Speed Wind Speed (WSPD): 4.1 kts
5-day plot - Wind Gust Wind Gust (GST): 8.0 kts
5-day plot - Atmospheric Pressure Atmospheric Pressure (PRES):29.91 in
5-day plot - Air Temperature Air Temperature (ATMP): 83.8 °F
5-day plot - Water Temperature Water Temperature (WTMP): 86.7 °F
5-day plot - Wind Speed at 10 Meters Wind Speed at 10 meters (WSPD10M): 3.9 kts
5-day plot - Wind Speed at 20 Meters Wind Speed at 20 meters (WSPD20M): 5.8 kts
5-day plot -  Wind Speed, Wind Gust and Atmospheric Pressure Combined plot of Wind Speed, Gust, and Air Pressure
NOS Water Level Observation Network Water Level
Previous observations
TIME
(AST)
5-day plot - Wind Direction
WDIR
 
5-day plot - Wind Speed
WSPD
kts
5-day plot - Wind Gust
GST
kts
5-day plot - Wave Height
WVHT
ft
5-day plot - Dominant Wave Period
DPD
sec
5-day plot - Average Wave Period
APD
sec
5-day plot - Mean Wave Direction
MWD
 
5-day plot - Atmospheric Pressure
PRES
in
5-day plot - Pressure Tendency
PTDY
in
5-day plot - Air Temperature
ATMP
°F
5-day plot - Water Temperature
WTMP
°F
5-day plot - Dew Point
DEWP
°F
5-day plot - Salinity
SAL
psu
5-day plot - Visibility
VIS
nmi
5-day plot - Tide (above MLLW)
TIDE
ft
2023-06-03 10:48 pmESE 2.9 7.0----29.91- 83.7 86.7----
2023-06-03 10:42 pm SE 5.1 8.0----29.91- 83.8 86.7----
2023-06-03 10:36 pm SE 4.1 7.0----29.91- 83.7 86.7----
2023-06-03 10:30 pm SE 4.1 7.0----29.91- 83.8 86.7----
2023-06-03 10:24 pmESE 4.1 8.0----29.91- 83.7 86.7----
2023-06-03 10:18 pmESE 2.9 6.0----29.91- 83.7 86.7----
2023-06-03 10:12 pmESE 2.9 6.0----29.90- 83.7 86.7----
2023-06-03 10:06 pm SE 2.9 5.1----29.90- 83.7 86.7----
2023-06-03 10:00 pm E 2.9 8.0----29.90+0.06 83.7 86.7----
2023-06-03 09:54 pmESE 4.1 6.0----29.89- 83.7 86.7----
2023-06-03 09:48 pmESE 1.9 5.1----29.89- 83.7 86.7----
2023-06-03 09:42 pmESE 1.9 5.1----29.89- 83.7 86.7----
2023-06-03 09:36 pmESE 4.1 6.0----29.88- 83.7 86.7----
2023-06-03 09:30 pmESE 4.1 7.0----29.88- 83.7 86.7----
2023-06-03 09:24 pmESE 4.1 6.0----29.88- 83.7 86.7----
2023-06-03 09:18 pm E 1.9 6.0----29.88- 83.8 86.7----
2023-06-03 09:12 pmESE 4.1 6.0----29.87- 83.8 86.7----
2023-06-03 09:06 pmESE 2.9 7.0----29.87- 83.7 86.7----
2023-06-03 09:00 pmESE 2.9 6.0----29.87+0.05 83.8 86.7----
2023-06-03 08:54 pmESE 2.9 6.0----29.87- 83.8 86.7----
2023-06-03 08:48 pmESE 1.9 5.1----29.87- 83.7 86.7----
2023-06-03 08:42 pmESE 2.9 6.0----29.87- 83.8 86.9----
2023-06-03 08:36 pm E 1.9 7.0----29.87- 83.7 86.9----
2023-06-03 08:30 pmESE 2.9 7.0------ 83.7 86.9----
2023-06-03 08:24 pm SE 4.1 8.0------ 84.0 86.9----
2023-06-03 08:18 pmESE 2.9 8.0----29.86- 83.8 86.9----
2023-06-03 08:12 pm SE 5.1 8.9----29.86- 84.0 86.9----
2023-06-03 08:06 pm SE 5.1 9.9----29.85- 84.2 86.9----
2023-06-03 08:00 pm SE 8.0 11.1----29.85+0.04 83.8 86.9----
2023-06-03 07:54 pm SE 6.0 8.9----29.85- 83.8 86.9----
2023-06-03 07:48 pm SE 6.0 8.0----29.84- 84.0 86.9----
2023-06-03 07:42 pmESE 2.9 8.9----29.84- 84.0 86.9----
2023-06-03 07:36 pm SE 7.0 8.9----29.84- 84.0 86.9----
2023-06-03 07:30 pm SE 5.1 9.9----29.84- 84.0 86.9----
2023-06-03 07:24 pm SE 6.0 8.9----29.84- 84.0 86.9----
2023-06-03 07:18 pm SE 7.0 9.9----29.83- 84.2 87.1----
2023-06-03 07:12 pm SE 6.0 9.9----29.83- 84.2 87.1----
2023-06-03 07:06 pm SE 5.1 8.9----29.83- 84.2 87.1----
2023-06-03 07:00 pm SE 5.1 9.9----29.83+0.01 84.2 87.1----
2023-06-03 06:54 pm SE 6.0 11.1----29.83- 84.4 87.1----
2023-06-03 06:48 pm SE 8.0 12.0----29.83- 84.4 87.1----
2023-06-03 06:42 pm SE 8.0 12.0----29.83- 84.4 87.3----
2023-06-03 06:36 pm SE 7.0 12.0----29.83- 84.6 87.3----
2023-06-03 06:30 pm SE 7.0 11.1----29.83- 84.6 87.3----
2023-06-03 06:24 pm SE 7.0 9.9----29.83- 84.6 87.3----
2023-06-03 06:18 pm SE 7.0 11.1----29.83- 84.6 87.3----
2023-06-03 06:12 pm SE 8.9 13.0----29.83- 84.6 87.3----
2023-06-03 06:06 pm SE 7.0 11.1----29.83- 84.7 87.3----
2023-06-03 06:00 pm SE 8.9 12.0----29.82-0.01 84.7 87.3----
2023-06-03 05:54 pm SE 7.0 11.1----29.82- 85.1 87.3----
2023-06-03 05:48 pm SE 7.0 12.0----29.82- 85.6 87.3----
2023-06-03 05:42 pm SE 7.0 11.1----29.82- 85.6 87.3----
2023-06-03 05:36 pm SE 7.0 11.1----29.82- 85.8 87.3----
2023-06-03 05:30 pmSSE 6.0 11.1----29.81- 85.8 87.3----
2023-06-03 05:24 pm SE 8.9 13.0----29.81- 85.8 87.3----
2023-06-03 05:18 pm SE 8.0 12.0----29.81- 85.8 87.3----
2023-06-03 05:12 pmSSE 8.0 15.0----29.81- 86.0 87.3----
2023-06-03 05:06 pm SE 8.0 13.0----29.81- 85.8 87.3----
2023-06-03 05:00 pmSSE 8.0 13.0----29.82-0.03 86.0 87.3----
2023-06-03 04:54 pmSSE 8.9 14.0----29.82- 85.8 87.3----
2023-06-03 04:48 pmSSE 8.9 15.0----29.82- 85.8 87.3----
2023-06-03 04:42 pmSSE 8.0 15.0----29.82- 85.6 87.1----
2023-06-03 04:36 pmSSE 8.0 14.0----29.82- 86.0 87.1----
2023-06-03 04:30 pmSSE 9.9 15.0----29.82- 86.0 87.1----
2023-06-03 04:24 pmSSE 8.9 14.0----29.82- 86.0 87.1----
2023-06-03 04:18 pmSSE 8.0 14.0----29.82- 85.8 87.3----
2023-06-03 04:12 pm SE 8.9 15.0----29.82- 85.8 87.3----
2023-06-03 04:06 pm SE 8.9 15.0----29.82- 85.8 87.3----
2023-06-03 04:00 pm SE 12.0 15.0----29.82-0.04 85.8 87.3----
2023-06-03 03:54 pmSSE 11.1 15.9----29.82- 85.6 87.3----
2023-06-03 03:48 pm SE 9.9 14.0----29.82- 85.8 87.1----
2023-06-03 03:42 pm SE 11.1 15.0----29.82- 85.3 87.1----
2023-06-03 03:36 pm S 11.1 14.0----29.83- 84.7 87.3----
2023-06-03 03:30 pm-------29.83- 84.9 87.1----
2023-06-03 03:24 pm-------29.83- 85.8 87.3----
2023-06-03 03:18 pm SE 9.9 14.0----29.83- 86.0 87.1----
2023-06-03 03:12 pm SE 8.9 15.9----29.83- 86.2 87.3----
2023-06-03 03:06 pm SE 8.0 14.0----29.83- 86.2 87.3----
2023-06-03 03:00 pm SE 9.9 14.0----29.83-0.05 86.4 87.3----
2023-06-03 02:54 pmSSE 8.9 15.0----29.83- 86.2 87.1----
2023-06-03 02:48 pm SE 9.9 15.0----29.83- 86.0 87.1----
2023-06-03 02:42 pm SE 8.9 15.0----29.83- 85.8 87.1----
2023-06-03 02:36 pm SE 8.9 15.0----29.84- 86.4 86.9----
2023-06-03 02:30 pm SE 9.9 14.0----29.84- 86.2 86.9----
2023-06-03 02:24 pm SE 11.1 15.0----29.84- 86.2 86.9----
2023-06-03 02:18 pm SE 8.9 15.9----29.84- 86.2 87.1----
2023-06-03 02:12 pm SE 8.9 15.9----29.85- 85.8 87.1----
2023-06-03 02:06 pm SE 9.9 15.0----29.85- 86.0 86.9----
2023-06-03 02:00 pmSSE 8.9 15.0----29.85-0.04 85.8 86.9----
2023-06-03 01:54 pmSSE 8.9 14.0----29.85- 85.8 86.7----
2023-06-03 01:48 pmSSE 8.9 15.9----29.85- 86.2 86.7----
2023-06-03 01:42 pm SE 11.1 15.9----29.85- 86.2 86.7----
2023-06-03 01:36 pm SE 13.0 18.1----29.85- 86.0 86.7----
2023-06-03 01:30 pm SE 9.9 17.1----29.86- 86.2 86.7----
2023-06-03 01:24 pm SE 12.0 18.1----29.86- 86.0 86.9----
2023-06-03 01:18 pm SE 12.0 17.1----29.86- 86.2 86.7----
2023-06-03 01:12 pm SE 12.0 15.9----29.86- 85.8 86.7----
2023-06-03 01:06 pm SE 13.0 17.1----29.86- 85.8 86.5----
2023-06-03 01:00 pm SE 12.0 17.1----29.87-0.02 85.8 86.7----
2023-06-03 12:54 pm SE 12.0 17.1----29.87- 86.0 86.5----
2023-06-03 12:48 pm SE 12.0 18.1----29.87- 86.0 86.5----
2023-06-03 12:42 pm SE 12.0 15.9----29.87- 86.2 86.5----
2023-06-03 12:36 pm SE 11.1 15.9----29.88- 86.0 86.5----
2023-06-03 12:30 pm SE 11.1 15.9----29.88- 85.8 86.5----
2023-06-03 12:24 pm SE 11.1 15.9----29.88- 85.6 86.4----
2023-06-03 12:18 pm SE 11.1 15.0----29.88- 85.5 86.4----
2023-06-03 12:12 pm SE 9.9 15.0----29.88- 86.0 86.4----
2023-06-03 12:06 pm SE 11.1 17.1----29.88- 85.8 86.4----
2023-06-03 12:00 pm SE 11.1 14.0----29.88+0.00 85.8 86.4----
2023-06-03 11:54 am SE 12.0 15.9----29.88- 85.6 86.4----
2023-06-03 11:48 am SE 12.0 15.0----29.88- 86.2 86.4----
2023-06-03 11:42 am SE 11.1 14.0----29.88- 86.0 86.4----
2023-06-03 11:36 am SE 11.1 15.9----29.88- 86.0 86.2----
2023-06-03 11:30 am SE 13.0 19.0----29.88- 85.5 86.2----
2023-06-03 11:24 am SE 11.1 19.0----29.88- 85.8 86.2----
2023-06-03 11:18 am SE 12.0 21.0----29.88- 85.8 86.0----
2023-06-03 11:12 am SE 13.0 19.0----29.89- 85.5 86.0----
2023-06-03 11:06 am SE 13.0 18.1----29.89- 85.5 86.0----
2023-06-03 11:00 am SE 9.9 17.1----29.89+0.01 85.8 86.0----
2023-06-03 10:54 am SE 13.0 20.0----29.88- 85.5 85.8----
2023-06-03 10:48 am SE 11.1 15.9----29.88- 85.3 85.8----
2023-06-03 10:42 am SE 11.1 17.1----29.88- 85.6 85.8----
2023-06-03 10:36 am SE 12.0 17.1----29.88- 85.5 85.6----
2023-06-03 10:30 am SE 12.0 17.1----29.88- 85.3 85.6----
2023-06-03 10:24 am SE 11.1 17.1----29.88- 85.1 85.6----
2023-06-03 10:18 am SE 12.0 19.0----29.88- 85.3 85.6----
2023-06-03 10:12 am SE 12.0 15.0----29.89- 85.3 85.6----
2023-06-03 10:06 am SE 12.0 17.1----29.89- 85.5 85.6----
2023-06-03 10:00 am SE 9.9 15.9----29.89+0.03 85.5 85.5----
2023-06-03 09:54 am SE 13.0 17.1----29.89- 85.1 85.5----
2023-06-03 09:48 am SE 11.1 18.1----29.89- 85.3 85.5----
2023-06-03 09:42 am SE 12.0 15.9----29.88- 85.1 85.5----
2023-06-03 09:36 amESE 8.9 18.1----29.88- 83.5 85.5----
2023-06-03 09:30 am SE 9.9 15.0----29.88- 84.0 85.5----
2023-06-03 09:24 am SE 12.0 15.9----29.88- 84.6 85.3----
2023-06-03 09:18 am SE 9.9 14.0----29.88- 84.7 85.3----
2023-06-03 09:12 am SE 11.1 17.1----29.88- 84.7 85.3----
2023-06-03 09:06 am SE 9.9 17.1----29.88- 85.3 85.5----
2023-06-03 09:00 am SE 11.1 17.1----29.88+0.04 84.9 85.3----
2023-06-03 08:54 am SE 11.1 15.9----29.88- 84.4 85.3----
2023-06-03 08:48 am SE 12.0 15.9----29.88- 84.6 85.3----
2023-06-03 08:42 am SE 12.0 17.1----29.88- 84.7 85.3----
2023-06-03 08:36 am SE 11.1 15.9----29.88- 84.4 85.3----
2023-06-03 08:30 am SE 9.9 15.0----29.87- 84.7 85.3----
2023-06-03 08:24 am SE 11.1 15.9----29.87- 84.9 85.3----
2023-06-03 08:18 am SE 9.9 15.9----29.88- 84.6 85.3----
2023-06-03 08:12 am SE 9.9 15.9----29.88- 84.4 85.3----
2023-06-03 08:06 am SE 12.0 17.1----29.88- 84.6 85.3----
2023-06-03 08:00 am SE 12.0 15.9----29.87+0.04 84.2 85.3----
2023-06-03 07:54 am SE 9.9 15.0----29.87- 84.6 85.3----
2023-06-03 07:48 am SE 8.9 15.0----29.87- 84.2 85.3----
2023-06-03 07:42 am SE 8.0 15.0----29.87- 83.5 85.3----
2023-06-03 07:36 am SE 11.1 15.9----29.87- 83.8 85.3----
2023-06-03 07:30 am SE 8.9 15.0----29.87- 84.2 85.3----
2023-06-03 07:24 am SE 8.9 15.9----29.87- 83.8 85.3----
2023-06-03 07:18 am SE 9.9 15.0----29.86- 83.8 85.3----
2023-06-03 07:12 am SE 12.0 17.1----29.86- 83.5 85.3----
2023-06-03 07:06 am SE 9.9 18.1----29.86- 83.7 85.3----
2023-06-03 07:00 am SE 11.1 17.1----29.86+0.04 83.5 85.3----
2023-06-03 06:54 am SE 11.1 15.0----29.86- 83.3 85.3----
2023-06-03 06:48 am SE 9.9 17.1----29.85- 83.3 85.5----
2023-06-03 06:42 am SE 9.9 14.0----29.85- 83.3 85.5----
2023-06-03 06:36 am SE 8.9 15.0----29.85- 83.1 85.5----
2023-06-03 06:30 am SE 11.1 15.9----29.85- 83.1 85.5----
2023-06-03 06:24 am SE 9.9 15.0----29.85- 82.9 85.5----
2023-06-03 06:18 am SE 8.9 13.0----29.84- 83.1 85.5----
2023-06-03 06:12 am SE 8.0 13.0----29.84- 83.1 85.5----
2023-06-03 06:06 am SE 9.9 15.0----29.84- 83.1 85.5----
2023-06-03 06:00 am SE 8.9 14.0----29.84+0.00 83.1 85.5----
2023-06-03 05:54 am SE 8.9 14.0----29.84- 83.1 85.5----
2023-06-03 05:48 am SE 11.1 14.0----29.84- 83.1 85.5----
2023-06-03 05:42 am SE 9.9 15.0----29.84- 83.3 85.5----
2023-06-03 05:36 am SE 9.9 15.0----29.83- 83.3 85.6----
2023-06-03 05:30 am SE 8.9 14.0----29.83-- 85.6----
2023-06-03 05:24 am SE 9.9 15.0----29.83-- 85.6----
2023-06-03 05:18 am SE 9.9 14.0----29.84- 83.1 85.6----
2023-06-03 05:12 am SE 8.0 12.0----29.83- 83.3 85.6----
2023-06-03 05:06 am SE 7.0 13.0----29.83- 83.3 85.6----
2023-06-03 05:00 am SE 8.0 14.0----29.83-0.02 83.1 85.6----
2023-06-03 04:54 am SE 8.9 14.0----29.83- 83.1 85.6----
2023-06-03 04:48 am SE 8.9 13.0----29.83- 82.9 85.6----
2023-06-03 04:42 am SE 8.9 14.0----29.83- 83.1 85.6----
2023-06-03 04:36 am SE 8.0 11.1----29.83- 83.1 85.6----
2023-06-03 04:30 am SE 7.0 13.0----29.83- 83.1 85.6----
2023-06-03 04:24 am SE 8.9 15.0----29.83- 83.3 85.8----
2023-06-03 04:18 am SE 8.0 13.0----29.83- 83.1 85.8----
2023-06-03 04:12 am SE 8.0 14.0----29.83- 83.1 85.8----
2023-06-03 04:06 am SE 8.0 13.0----29.83- 83.1 85.8----
2023-06-03 04:00 am SE 7.0 12.0----29.83-0.04 83.3 85.8----
2023-06-03 03:54 am SE 8.0 12.0----29.83- 83.3 85.8----
2023-06-03 03:48 am SE 8.9 14.0----29.83- 83.1-----
2023-06-03 03:42 am SE 8.9 13.0----29.83- 83.1-----
2023-06-03 03:36 am SE 7.0 13.0----29.83- 83.3-----
2023-06-03 03:30 am SE 8.9 15.0----29.83- 83.1 85.8----
2023-06-03 03:24 am SE 7.0 13.0----29.83- 83.3 85.8----
2023-06-03 03:18 am SE 9.9 14.0----29.84- 83.3 86.0----
2023-06-03 03:12 am SE 8.9 12.0----29.84- 83.3 86.0----
2023-06-03 03:06 am SE 8.0 12.0----29.84- 83.3 86.0----
2023-06-03 03:00 am SE 8.0 15.0----29.84-0.05 83.1 86.0----
2023-06-03 02:54 am SE 8.9 14.0----29.84- 83.1 86.0----
2023-06-03 02:48 am SE 8.9 14.0----29.84- 83.1 86.0----
2023-06-03 02:42 am SE 8.9 12.0----29.84- 83.3 86.0----
2023-06-03 02:36 am SE 9.9 15.9----29.84- 83.3 86.0----
2023-06-03 02:30 amESE 8.0 12.0----29.84- 83.3 86.0----
2023-06-03 02:24 am SE 8.9 14.0----29.85- 83.3 86.0----
2023-06-03 02:18 am SE 8.9 13.0----29.85- 83.3 86.2----
2023-06-03 02:12 am SE 8.9 17.1----29.85- 83.5 86.2----
2023-06-03 02:06 am SE 8.9 15.0----29.85- 83.3 86.2----
2023-06-03 02:00 am SE 9.9 15.0----29.85-0.05 83.3 86.2----
2023-06-03 01:54 am SE 11.1 15.9----29.85- 83.3 86.2----
2023-06-03 01:48 am SE 8.9 13.0----29.85- 83.1 86.2----
2023-06-03 01:42 amESE 4.1 11.1----29.85- 82.8 86.2----
2023-06-03 01:36 am SE 8.9 14.0----29.85- 83.5 86.2----
2023-06-03 01:30 am SE 9.9 14.0----29.85- 83.5 86.2----
2023-06-03 01:24 am SE 8.0 13.0----29.86- 83.5 86.4----
2023-06-03 01:18 am SE 9.9 14.0----29.86- 83.3 86.4----
2023-06-03 01:12 am SE 11.1 15.0----29.86- 83.5 86.4----
2023-06-03 01:06 am SE 9.9 15.9----29.87- 83.5 86.4----
2023-06-03 01:00 am SE 9.9 15.9----29.87- 83.7 86.4----
2023-06-03 12:54 am SE 11.1 15.0----29.87- 83.5 86.4----
2023-06-03 12:48 am SE 8.0 13.0----29.87- 83.5 86.4----
2023-06-03 12:42 am SE 8.9 12.0----29.88- 83.5 86.4----
2023-06-03 12:36 am SE 8.9 15.0----29.88- 83.7 86.4----
2023-06-03 12:30 am SE 8.9 15.0----29.88- 83.7 86.5----
2023-06-03 12:24 am SE 8.0 15.9----29.88- 83.7 86.5----
2023-06-03 12:18 am SE 11.1 15.0----29.88- 83.5 86.5----
2023-06-03 12:12 am SE 8.0 14.0----29.88- 83.7 86.5----
2023-06-03 12:06 am SE 9.9 17.1----29.89- 83.7 86.5----
2023-06-03 12:00 am SE 9.9 15.9----29.89+0.00 83.7 86.5----
2023-06-02 11:54 pm SE 8.0 11.1----29.89- 83.5 86.5----
2023-06-02 11:48 pm SE 7.0 14.0----29.89- 83.5 86.5----
2023-06-02 11:42 pm SE 11.1 15.0----29.89- 83.5 86.5----
2023-06-02 11:36 pmESE 8.0 14.0----29.89- 83.5 86.5----
2023-06-02 11:30 pm SE 7.0 13.0----29.89- 83.5 86.5----
2023-06-02 11:24 pm SE 8.9 13.0----29.90- 83.7 86.5----
2023-06-02 11:18 pm SE 11.1 15.0----29.90- 83.7 86.5----
2023-06-02 11:12 pm SE 9.9 14.0----29.90- 83.7 86.5----
2023-06-02 11:06 pm SE 7.0 13.0----29.90- 83.7 86.5----
2023-06-02 11:00 pm SE 8.9 13.0----29.90+0.03 83.7 86.7----
2023-06-02 10:54 pmESE 8.0 13.0----29.90- 83.7 86.7----